Date String (YYYY-MM-DD hh:mm:ss) UTC,Instrument flags,absolute air pressure of the measurement (hPa),sample flow rate (lpm),inlet stack bypass flow (lpm),air temperature of the measurement (°C),ambient temperature measured by the external sensor (°C),aerosol sample conditioner tube jacket temperature (°C),OPC LED temperature (°C),internal box temperature (°C),relative humidity of the measurement (%),span deviation,mass concentration of particles derived from Lorenz-Mie calculation of OPC scattering (μg/m³),mass concentration of particles derived from Lorenz-Mie calculation of OPC scattering (μg/m³),mass concentration of particles derived from Lorenz-Mie calculation of OPC scattering (μg/m³)
DateTimeUTC,F1_M11,P_M11,Q1_M11,Q2_M11,T1_M11,T2_M11,T3_M11,T4_M11,T5_M11,U1_M11,ZSPAN_M11,X2_M11,X0_M11,X1_M11
2023-06-16 14:00:00,SystemResetWarning,0833.0,5.00,000.00,030.5,028.9,000.0,039.0,032.0,27.8,0000.0,0003.07,0005.23,0002.56
2023-06-16 14:01:00,SystemResetWarning,0832.9,5.00,000.00,030.5,028.9,000.0,039.0,032.0,27.7,0000.0,0003.05,0005.16,0002.55
2023-06-16 14:02:00,SystemResetWarning,0833.0,5.00,000.00,030.5,028.9,000.0,039.0,032.0,28.0,0000.0,0002.99,0004.99,0002.54
2023-06-16 14:03:00,SystemResetWarning,0833.0,4.99,000.00,030.5,028.9,000.0,039.0,032.0,27.6,0000.0,0002.96,0004.82,0002.52
2023-06-16 14:04:00,SystemResetWarning,0832.9,5.00,000.00,030.5,028.9,000.0,039.0,032.0,27.5,0000.0,0002.87,0004.01,0002.50
2023-06-16 14:05:00,SystemResetWarning,0833.2,5.00,000.00,030.5,028.9,000.0,039.1,032.0,27.8,0000.0,0002.87,0004.01,0002.49
2023-06-16 14:06:00,SystemResetWarning,0833.2,5.00,000.00,030.5,029.0,000.0,039.0,032.0,27.8,0000.0,0002.86,0003.99,0002.48
2023-06-16 14:07:00,SystemResetWarning,0833.1,5.01,000.00,030.5,029.0,000.0,039.1,032.0,27.8,0000.0,0002.88,0004.07,0002.47
2023-06-16 14:08:00,SystemResetWarning,0833.2,5.00,000.00,030.5,029.0,000.0,039.1,032.0,27.6,0000.0,0002.89,0004.38,0002.48
2023-06-16 14:09:00,SystemResetWarning,0833.1,5.00,000.00,030.5,029.0,000.0,039.1,032.0,27.4,0000.0,0002.83,0004.28,0002.46
2023-06-16 14:10:00,SystemResetWarning,0833.2,5.00,000.00,030.6,029.0,000.0,039.1,032.0,27.6,0000.0,0002.79,0004.12,0002.43
2023-06-16 14:11:00,SystemResetWarning,0833.2,5.00,000.00,030.6,029.0,000.0,039.1,032.0,27.8,0000.0,0002.80,0004.50,0002.43
2023-06-16 14:12:00,SystemResetWarning,0833.2,4.99,000.00,030.6,029.0,000.0,039.1,032.0,27.5,0000.0,0002.80,0004.53,0002.42
2023-06-16 14:13:00,SystemResetWarning,0833.2,5.00,000.00,030.6,029.0,000.0,039.1,032.1,27.7,0000.0,0002.85,0004.79,0002.42
2023-06-16 14:14:00,SystemResetWarning,0833.2,5.00,000.00,030.6,029.0,000.0,039.1,032.0,27.8,0000.0,0002.90,0004.95,0002.41
2023-06-16 14:15:00,SystemResetWarning,0833.2,5.01,000.00,030.6,029.0,000.0,039.1,032.1,27.8,0000.0,0002.95,0005.16,0002.42
2023-06-16 14:16:00,SystemResetWarning,0833.2,5.00,000.00,030.6,029.0,000.0,039.1,032.0,28.1,0000.0,0002.97,0005.22,0002.42
2023-06-16 14:17:00,SystemResetWarning,0833.2,5.00,000.00,030.6,029.0,000.0,039.1,032.1,27.9,0000.0,0002.98,0005.27,0002.42
2023-06-16 14:18:00,SystemResetWarning,0833.2,5.01,000.00,030.6,029.0,000.0,039.2,032.1,27.7,0000.0,0002.95,0005.24,0002.42
2023-06-16 14:19:00,SystemResetWarning,0833.2,4.99,000.00,030.6,029.1,000.0,039.2,032.1,27.8,0000.0,0002.96,0005.09,0002.40
2023-06-16 14:20:00,SystemResetWarning,0833.2,5.00,000.00,030.7,029.1,000.0,039.2,032.1,27.6,0000.0,0003.00,0005.07,0002.40
2023-06-16 14:21:00,SystemResetWarning,0833.2,4.99,000.00,030.7,029.1,000.0,039.2,032.1,27.4,0000.0,0002.96,0005.05,0002.38
2023-06-16 14:22:00,SystemResetWarning,0833.2,5.00,000.00,030.7,029.1,000.0,039.2,032.1,27.4,0000.0,0002.92,0004.63,0002.38
2023-06-16 14:23:00,SystemResetWarning,0833.2,5.01,000.00,030.7,029.1,000.0,039.2,032.1,27.5,0000.0,0002.87,0004.50,0002.36
2023-06-16 14:24:00,SystemResetWarning,0833.2,5.00,000.00,030.7,029.1,000.0,039.2,032.1,27.5,0000.0,0002.81,0004.21,0002.36
2023-06-16 14:25:00,SystemResetWarning,0833.3,5.00,000.00,030.7,029.1,000.0,039.3,032.2,27.5,0000.0,0002.79,0004.16,0002.36
2023-06-16 14:26:00,SystemResetWarning,0833.3,4.99,000.00,030.7,028.6,000.0,039.2,032.2,27.7,0000.0,0002.79,0004.11,0002.37
2023-06-16 14:27:00,SystemResetWarning,0833.4,4.99,000.00,030.7,026.3,000.0,039.2,032.0,28.0,0000.0,0002.76,0004.04,0002.37
2023-06-16 14:28:00,SystemResetWarning,0833.4,5.00,000.00,030.6,025.3,000.0,039.1,031.9,27.9,0000.0,0002.73,0004.00,0002.37
2023-06-16 14:29:00,SystemResetWarning,0833.3,5.02,000.00,030.5,025.3,000.0,039.1,031.5,28.1,0000.0,0002.75,0004.07,0002.37
2023-06-16 14:30:00,SystemResetWarning,0833.3,5.00,000.00,030.4,025.7,000.0,039.0,031.5,28.4,0000.0,0002.75,0004.17,0002.36
2023-06-16 14:31:00,SystemResetWarning,0833.3,5.00,000.00,030.3,026.2,000.0,039.0,031.5,28.7,0000.0,0002.72,0004.12,0002.36
2023-06-16 14:32:00,SystemResetWarning,0833.4,5.00,000.00,030.3,026.6,000.0,039.0,031.5,29.0,0000.0,0002.73,0004.03,0002.37
2023-06-16 14:33:00,SystemResetWarning,0833.4,5.00,000.00,030.3,027.0,000.0,039.0,031.5,29.1,0000.0,0002.75,0004.02,0002.37
2023-06-16 14:34:00,SystemResetWarning,0833.4,4.98,000.00,030.2,027.3,000.0,038.9,031.6,29.3,0000.0,0002.78,0004.14,0002.37
2023-06-16 14:35:00,SystemResetWarning,0833.4,5.01,000.00,030.2,027.6,000.0,038.9,031.6,29.4,0000.0,0002.82,0004.24,0002.38
2023-06-16 14:36:00,SystemResetWarning,0833.4,5.01,000.00,030.2,027.8,000.0,038.9,031.6,29.4,0000.0,0002.82,0004.31,0002.38
2023-06-16 14:37:00,SystemResetWarning,0833.4,4.99,000.00,030.2,028.0,000.0,038.9,031.6,29.2,0000.0,0002.85,0004.45,0002.39
2023-06-16 14:38:00,SystemResetWarning,0833.4,5.00,000.00,030.2,028.1,000.0,038.9,031.6,29.4,0000.0,0002.88,0004.49,0002.40
2023-06-16 14:39:00,SystemResetWarning,0833.4,5.00,000.00,030.2,028.2,000.0,038.9,031.7,29.4,0000.0,0002.92,0004.57,0002.40
2023-06-16 14:40:00,SystemResetWarning,0833.4,4.99,000.00,030.2,028.3,000.0,038.9,031.7,29.5,0000.0,0002.93,0004.45,0002.41
2023-06-16 14:41:00,SystemResetWarning,0833.4,5.00,000.00,030.2,028.4,000.0,038.9,031.7,29.8,0000.0,0002.92,0004.24,0002.44
2023-06-16 14:42:00,SystemResetWarning,0833.4,5.00,000.00,030.2,028.4,000.0,038.9,031.7,29.7,0000.0,0002.92,0004.17,0002.45
2023-06-16 14:43:00,SystemResetWarning,0833.4,5.00,000.00,030.3,028.5,000.0,038.9,031.7,29.5,0000.0,0002.97,0004.36,0002.45
2023-06-16 14:44:00,SystemResetWarning,0833.4,5.00,000.00,030.3,028.5,000.0,038.9,031.8,29.1,0000.0,0003.02,0004.48,0002.45
2023-06-16 14:45:00,SystemResetWarning,0833.4,5.00,000.00,030.3,028.6,000.0,038.9,031.8,28.9,0000.0,0003.04,0004.56,0002.47
2023-06-16 14:46:00,SystemResetWarning,0833.4,5.00,000.00,030.3,028.6,000.0,038.9,031.8,29.3,0000.0,0003.09,0005.12,0002.49
2023-06-16 14:47:00,SystemResetWarning,0833.4,5.00,000.00,030.3,028.7,000.0,038.9,031.8,29.3,0000.0,0003.11,0005.73,0002.50
2023-06-16 14:48:00,SystemResetWarning,0833.5,5.00,000.00,030.3,028.7,000.0,038.9,031.8,29.4,0000.0,0003.11,0005.63,0002.50
2023-06-16 14:49:00,SystemResetWarning,0833.4,5.00,000.00,030.3,028.7,000.0,038.9,031.8,29.4,0000.0,0003.10,0005.58,0002.49
2023-06-16 14:50:00,SystemResetWarning,0833.5,5.00,000.00,030.3,028.8,000.0,038.9,031.8,29.4,0000.0,0003.09,0005.54,0002.51
2023-06-16 14:51:00,SystemResetWarning,0833.5,5.00,000.00,030.4,028.8,000.0,038.9,031.8,29.4,0000.0,0003.11,0005.84,0002.52
2023-06-16 14:52:00,SystemResetWarning,0833.5,4.99,000.00,030.4,028.8,000.0,038.9,031.8,29.2,0000.0,0003.13,0006.18,0002.52
2023-06-16 14:53:00,SystemResetWarning,0833.4,5.00,000.00,030.4,028.8,000.0,038.9,031.9,29.1,0000.0,0003.14,0006.47,0002.53
2023-06-16 14:54:00,SystemResetWarning,0833.4,5.00,000.00,030.4,028.8,000.0,038.9,031.9,29.3,0000.0,0003.13,0007.04,0002.53
2023-06-16 14:55:00,SystemResetWarning,0833.4,5.00,000.00,030.4,028.8,000.0,038.9,031.9,29.2,0000.0,0003.10,0006.96,0002.55
2023-06-16 14:56:00,SystemResetWarning,0833.5,5.00,000.00,030.4,028.9,000.0,039.0,031.9,28.9,0000.0,0003.11,0006.95,0002.56
2023-06-16 14:57:00,SystemResetWarning,0833.6,5.00,000.00,030.4,028.9,000.0,039.0,031.9,28.9,0000.0,0003.08,0006.48,0002.56
2023-06-16 14:58:00,SystemResetWarning,0833.6,5.00,000.00,030.4,028.9,000.0,039.0,031.9,28.8,0000.0,0003.07,0005.72,0002.57
2023-06-16 14:59:00,SystemResetWarning,0833.7,4.99,000.00,030.5,028.9,000.0,039.0,032.0,29.0,0000.0,0003.06,0005.61,0002.57
